Regional Weather Roundup
Issued by NWS

Home | Current Version | Previous Version | Graphics & Text | Print | Product List | Glossary Off
Versions: 1 2 3 4 5 6 7 8 9 10 11 12 13 14 15 16 17 18 19 20 21 22 23 24 25 26 27 28 29 30 31 32 33 34 35 36 37 38 39 40 41 42 43 44 45 46 47 48 49 50

000
ASUS43 KMKX 270321
RWRWI

WISCONSIN REGIONAL WEATHER ROUNDUP
NATIONAL WEATHER SERVICE MILWAUKEE/SULLIVAN WI
1000 PM CDT MON SEP 26 2016

NOTE: "FAIR" INDICATES FEW OR NO CLOUDS BELOW 12,000 FEET WITH NO
SIGNIFICANT WEATHER AND/OR OBSTRUCTIONS TO VISIBILITY.

WIZ001-002-006>008-014>016-023>028-270400-
NORTHWEST WISCONSIN

CITY           SKY/WX    TMP DP  RH WIND       PRES   REMARKS
SUPERIOR ARPT  CLOUDY    55  44  67 W15G24    29.74S
ASHLAND        CLOUDY    52  45  77 W14G21    29.70F
HAYWARD        CLOUDY    54  42  64 W8        29.75F
SIREN          CLOUDY    54  41  62 W7        29.80F
CUMBERLAND     CLOUDY    52  37  58 W14       29.79F
RICE LAKE      CLOUDY    55  39  56 W8        29.81F
CHETEK         NOT AVBL
LADYSMITH      CLOUDY    55  42  60 W13G22    29.78F
EAU CLAIRE     PTCLDY    52  39  61 W8        29.81F
MENOMONIE      CLEAR     53  39  58 W5        29.83F
NEW RICHMOND   CLEAR     51  38  60 W12       29.84F
OSCEOLA        CLEAR     52  40  63 W10       29.86F
$$

WIZ003>005-009-010-017-018-270400-
NORTH CENTRAL WISCONSIN

CITY           SKY/WX    TMP DP  RH WIND       PRES   REMARKS
MANITOWISH WTR NOT AVBL
ARBOR VITAE    RAIN      50  47  92 W12G18    29.70F
WOODRUFF       RAIN      50  47  92 W12G18    29.70F
RHINELANDER    LGT RAIN  49  46  90 W17G24    29.72F
EAGLE RIVER    DRIZZLE   48  47  96 W12G22    29.68F
LAND O LAKES   DRIZZLE   48  46  93 W9G22     29.67F
PHILLIPS       DRIZZLE   49  45  84 W6        29.74F
TOMAHAWK       CLOUDY    50  43  76 W7        29.74F
MEDFORD        CLOUDY    52  39  61 W8G21     29.77F
MERRILL        CLOUDY    53  42  65 W12       29.76S
$$

WIZ029-030-035-036-043>047-270400-
CENTRAL WISCONSIN

CITY           SKY/WX    TMP DP  RH WIND       PRES   REMARKS
WAUSAU         CLOUDY    54  39  57 W13       29.75F
MOSINEE        MOCLDY    52  41  66 W10       29.79F
MARSHFIELD     CLOUDY    53  39  59 W10       29.79F
STEVENS POINT  CLOUDY    52  39  61 W8        29.80F
WAUPACA        MOCLDY    55  42  59 SW9       29.79F
WAUTOMA        NOT AVBL
WISC RAPIDS    PTCLDY    52  41  66 W8        29.82F
CAMP DOUGLAS   CLEAR     52  38  59 W10       29.83F
$$

WIZ011>013-019>022-031-037>040-048>050-270400-
NORTHEAST WISCONSIN

CITY           SKY/WX    TMP DP  RH WIND       PRES   REMARKS
ANTIGO         CLOUDY    49  42  75 W8        29.74F
SHAWANO        CLOUDY    57  41  55 SW10      29.75F
OCONTO         NOT AVBL
STURGEON BAY   CLOUDY    58  42  55 W14G22    29.74F
GREEN BAY      CLOUDY    55  42  61 SW9       29.77F
MANITOWOC      PTCLDY    58  40  51 MISG      29.80F
APPLETON       PTCLDY    54  37  54 SW10      29.79F
CLINTONVILLE   NOT AVBL
OSHKOSH        PTCLDY    55  39  54 VRB6      29.81F
$$

WIZ032>034-041-042-053>061-270400-
SOUTHWEST WISCONSIN

CITY           SKY/WX    TMP DP  RH WIND       PRES   REMARKS
LA CROSSE      CLEAR     61  37  41 W13       29.86F
SPARTA         CLEAR     42  41  97 CALM      29.86F
VIROQUA        CLEAR     53  35  49 W9        29.88F
BOSCOBEL       CLEAR     53  40  61 SW5       29.90F
PRAIRIE DU CHI CLEAR     60  33  36 SW10      29.90F
PLATTEVILLE    CLEAR     52  40  63 SW7       29.93F
$$

WIZ056-057-062-063-064-067-068-270400-
SOUTH CENTRAL WISCONSIN

CITY           SKY/WX    TMP DP  RH WIND       PRES   REMARKS
REEDSBURG      NOT AVBL
BARABOO/DELLS  CLEAR     51  37  57 SW8       29.85F
LONE ROCK      CLEAR     51  40  65 CALM      29.89F
MINERAL POINT  CLEAR     54  36  50 W8        29.91F
MADISON        CLEAR     58  38  47 VRB5      29.87F
MIDDLETON      NOT AVBL
WATERTOWN      CLEAR     48  41  77 SW3       29.87F
MONROE         CLEAR     55  36  47 W15       29.91F
JANESVILLE     NOT AVBL
$$

WIZ051-052-058>065-066-070>072-270400-
SOUTHEAST WISCONSIN

CITY           SKY/WX    TMP DP  RH WIND       PRES   REMARKS
MILWAUKEE      CLEAR     59  38  45 W8        29.88S
WAUKESHA       CLEAR     52  36  54 SW6       29.89F
MILWAUKEE/TIMM CLEAR     52  36  54 SW5       29.88S
RACINE         CLEAR     56  37  49 SW7       29.89F
BURLINGTON     CLEAR     51  37  58 SW6       29.89F
KENOSHA        CLEAR     54  38  54 SW10      29.89F
FOND DU LAC    PTCLDY    52  41  66 SW7       29.83F
SHEBOYGAN      PTCLDY    52  40  63 SW9       29.82F
WEST BEND      CLEAR     50  39  66 SW7       29.85F
JUNEAU         CLEAR     48  41  76 S6        29.87F
$$

LSZ147-162-270400-
LAKE SUPERIOR

STATION/POSITION TIME  TEMP    WIND        PRES    WAVE
                       AIR SEA DIR/SP/G            HT/PER
                 (UTC) (F)     (DEG/KT/KT) (MB)    (FT/S)
W MID LAKE BUOY  0250   51 46  260/ 19/ 21 1000.5F   6/ 6
DEVILS ISLAND    0300   53     250/ 30/ 35 1003.1F
SAXON HARBOR     0240   52     230/ 11/ 17 1005.1F
$$

LMZ867-665-643>646-270400-
LAKE MICHIGAN

STATION/POSITION TIME  TEMP    WIND        PRES    WAVE
                       AIR SEA DIR/SP/G            HT/PER
                 (UTC) (F)     (DEG/KT/KT) (MB)    (FT/S)
CHAMBERS ISLAND  0200   58     220/ 10/ 22 1006.4S
N MID LAKE BUOY  0250   59 66  260/ 31/ 37 1003.9F   7/ 6
NORTHPORT PIER   0227   58     260/ 13/ 25 1006.4F
KEWAUNEE LAKESHO 0300   56     220/  7/ 10 1007.7F
SHEBOYGAN LAKESH 0300   56     240/ 10/ 12 1009.6F
PORT WASHINGTON  0200   56     250/  3/  4 1011.9
ATWATER BUOY     0300   58 53  230/  8/  8 1011.4F
MILWAUKEE LAKESH 0310   60     230/  8/ 10   N/A
S MID LAKE BUOY  0250   67 71  250/ 23/ 29 1010.6F   5/ 5
KENOSHA   LAKESH 0300   61     250/  9/ 14 1012.2S
$$

TC  - TEMPERATURE IN CELSIUS
VSB - VISIBILITY IN STATUTE MILES
WCI - WIND CHILL INDEX
HX  - HEAT INDEX




USA.gov is the U.S. government's official web portal to all federal, state and local government web resources and services.